JBU1675 KFLL-MKJP

Flight info

Callsign JBU1675
Flight time 1h 25m
Altitude 37000
Route REGAE2 URSUS UP406 BILSI UL795 BOPOL UR625 NEFTU UP525 EMABU UA301 IMADI DCT SAVEM ELSER5
Aircraft A320/M-SDE3FGHIRWY/LB1

Departure

Time 2026-05-06 23:28
Airport Fort Lauderdale Hollywood International Airport (KFLL)

Arrival

Time 2026-05-07 00:53
Airport Norman Manley International Airport (MKJP)
Time Latitude Longitude Altitude Speed Heading
2026-05-06 23:07 26.06881 -80.14297 16 ft 0 kts
2026-05-06 23:20 26.06870 -80.14297 17 ft 2 kts 358°
2026-05-06 23:20 26.06854 -80.14296 17 ft 2 kts 356°
2026-05-06 23:20 26.06838 -80.14294 18 ft 2 kts 348°
2026-05-06 23:20 26.06822 -80.14288 17 ft 2 kts 308°
2026-05-06 23:21 26.06818 -80.14276 17 ft 1 kts 268°
2026-05-06 23:21 26.06818 -80.14275 17 ft 0 kts 268°
2026-05-06 23:23 26.06817 -80.14294 16 ft 5 kts 268°
2026-05-06 23:23 26.06815 -80.14359 16 ft 11 kts 268°
2026-05-06 23:23 26.06816 -80.14465 16 ft 15 kts 272°
2026-05-06 23:23 26.06805 -80.14572 16 ft 10 kts 210°
2026-05-06 23:24 26.06766 -80.14641 16 ft 12 kts 259°
2026-05-06 23:24 26.06769 -80.14737 16 ft 14 kts 271°
2026-05-06 23:24 26.06766 -80.14851 16 ft 16 kts 268°
2026-05-06 23:24 26.06716 -80.14926 18 ft 11 kts 212°
2026-05-06 23:25 26.06694 -80.15000 19 ft 11 kts 269°
2026-05-06 23:25 26.06692 -80.15092 20 ft 13 kts 269°
2026-05-06 23:25 26.06691 -80.15194 21 ft 14 kts 269°
2026-05-06 23:25 26.06695 -80.15319 17 ft 19 kts 276°
2026-05-06 23:26 26.06695 -80.15470 16 ft 21 kts 268°
2026-05-06 23:26 26.06696 -80.15641 16 ft 22 kts 269°
2026-05-06 23:26 26.06683 -80.15807 17 ft 16 kts 228°
2026-05-06 23:26 26.06633 -80.15815 17 ft 6 kts 170°
2026-05-06 23:27 26.06593 -80.15805 20 ft 6 kts 157°
2026-05-06 23:27 26.06589 -80.15781 19 ft 4 kts 90°
2026-05-06 23:27 26.06592 -80.15634 23 ft 50 kts 89°
2026-05-06 23:27 26.06585 -80.14997 19 ft 113 kts 89°
2026-05-06 23:28 26.06574 -80.13965 120 ft 147 kts 91°
2026-05-06 23:28 26.06566 -80.12790 576 ft 161 kts 90°
2026-05-06 23:28 26.06575 -80.11491 1141 ft 174 kts 90°
2026-05-06 23:28 26.06610 -80.10116 1711 ft 182 kts 89°
2026-05-06 23:29 26.06683 -80.08682 2274 ft 189 kts 87°
2026-05-06 23:29 26.06745 -80.07189 2775 ft 200 kts 90°
2026-05-06 23:29 26.06753 -80.05571 3170 ft 219 kts 90°
2026-05-06 23:29 26.06746 -80.03805 3682 ft 237 kts 90°
2026-05-06 23:30 26.06740 -80.01904 4242 ft 255 kts 89°
2026-05-06 23:30 26.06739 -79.99864 4857 ft 273 kts 89°
2026-05-06 23:30 26.06723 -79.97743 5623 ft 281 kts 89°
2026-05-06 23:30 26.06698 -79.95564 6576 ft 282 kts 89°
2026-05-06 23:31 26.06671 -79.93383 7473 ft 283 kts 89°
2026-05-06 23:31 26.06646 -79.91192 8337 ft 285 kts 88°
2026-05-06 23:31 26.06621 -79.88980 9179 ft 287 kts 88°
2026-05-06 23:31 26.06597 -79.86747 9991 ft 290 kts 88°
2026-05-06 23:32 26.06572 -79.84461 10492 ft 303 kts 88°
2026-05-06 23:32 26.06409 -79.82055 10850 ft 322 kts 97°
2026-05-06 23:32 26.06026 -79.79588 11282 ft 333 kts 97°
2026-05-06 23:32 26.05626 -79.77033 11911 ft 337 kts 97°
2026-05-06 23:33 26.05222 -79.74450 12578 ft 341 kts 97°
2026-05-06 23:33 26.04812 -79.71841 13244 ft 344 kts 96°
2026-05-06 23:33 26.04399 -79.69209 13896 ft 347 kts 96°
2026-05-06 23:33 26.03982 -79.66553 14458 ft 351 kts 96°
2026-05-06 23:34 26.03490 -79.63874 14984 ft 357 kts 102°
2026-05-06 23:34 26.02839 -79.61186 15510 ft 362 kts 102°
2026-05-06 23:34 26.02191 -79.58497 16011 ft 367 kts 102°
2026-05-06 23:34 26.01529 -79.55736 16523 ft 372 kts 102°
2026-05-06 23:35 26.00632 -79.53017 17027 ft 380 kts 116°
2026-05-06 23:35 25.99111 -79.50588 17543 ft 387 kts 132°
2026-05-06 23:35 25.97032 -79.48665 18043 ft 393 kts 148°
2026-05-06 23:35 25.94536 -79.47410 18537 ft 396 kts 165°
2026-05-06 23:36 25.91829 -79.46768 18962 ft 400 kts 170°
2026-05-06 23:36 25.89082 -79.46191 19393 ft 404 kts 172°
2026-05-06 23:36 25.86271 -79.45959 19847 ft 406 kts 184°
2026-05-06 23:36 25.83471 -79.46348 20300 ft 406 kts 196°
2026-05-06 23:37 25.80838 -79.47332 20762 ft 406 kts 208°
2026-05-06 23:37 25.78390 -79.48880 21226 ft 405 kts 217°
2026-05-06 23:37 25.76032 -79.50612 21688 ft 409 kts 217°
2026-05-06 23:37 25.73642 -79.52350 22166 ft 412 kts 217°
2026-05-06 23:38 25.71233 -79.54091 22644 ft 415 kts 217°
2026-05-06 23:38 25.68802 -79.55846 23133 ft 418 kts 217°
2026-05-06 23:38 25.66459 -79.57752 23614 ft 419 kts 223°
2026-05-06 23:38 25.64165 -79.59761 24017 ft 421 kts 223°
2026-05-06 23:39 25.61890 -79.61755 24430 ft 423 kts 223°
2026-05-06 23:39 25.59578 -79.63780 24855 ft 425 kts 223°
2026-05-06 23:39 25.57255 -79.65814 25271 ft 427 kts 223°
2026-05-06 23:39 25.54921 -79.67859 25690 ft 428 kts 223°
2026-05-06 23:40 25.52583 -79.69907 26097 ft 430 kts 223°
2026-05-06 23:40 25.50230 -79.71965 26502 ft 431 kts 222°
2026-05-06 23:40 25.47873 -79.74025 26889 ft 433 kts 222°
2026-05-06 23:40 25.45502 -79.76093 27266 ft 435 kts 222°
2026-05-06 23:41 25.43124 -79.78168 27660 ft 436 kts 222°
2026-05-06 23:41 25.40726 -79.80172 28024 ft 440 kts 217°
2026-05-06 23:41 25.37994 -79.81752 28402 ft 448 kts 205°
2026-05-06 23:41 25.34984 -79.82711 28775 ft 455 kts 193°
2026-05-06 23:42 25.31809 -79.82986 29150 ft 462 kts 181°
2026-05-06 23:42 25.28606 -79.82527 29510 ft 468 kts 168°
2026-05-06 23:42 25.25458 -79.81538 29877 ft 472 kts 166°
2026-05-06 23:42 25.22303 -79.80518 30204 ft 474 kts 166°
2026-05-06 23:43 25.19129 -79.79496 30502 ft 476 kts 166°
2026-05-06 23:43 25.15977 -79.78487 30786 ft 479 kts 166°
2026-05-06 23:43 25.12769 -79.77465 31069 ft 481 kts 166°
2026-05-06 23:43 25.09544 -79.76439 31351 ft 484 kts 166°
2026-05-06 23:44 25.06301 -79.75410 31631 ft 486 kts 166°
2026-05-06 23:44 25.03040 -79.74376 31904 ft 488 kts 166°
2026-05-06 23:44 24.99776 -79.73338 32275 ft 488 kts 166°
2026-05-06 23:44 24.96517 -79.72294 32689 ft 487 kts 166°
2026-05-06 23:45 24.93262 -79.71252 33090 ft 487 kts 166°
2026-05-06 23:45 24.90039 -79.70091 33495 ft 489 kts 160°
2026-05-06 23:45 24.86981 -79.68442 33907 ft 490 kts 150°
2026-05-06 23:45 24.84135 -79.66455 34261 ft 491 kts 148°
2026-05-06 23:46 24.81261 -79.64424 34587 ft 491 kts 149°
2026-05-06 23:46 24.78386 -79.62400 34920 ft 491 kts 149°
2026-05-06 23:46 24.75509 -79.60380 35255 ft 490 kts 149°
2026-05-06 23:46 24.72637 -79.58364 35580 ft 490 kts 149°
2026-05-06 23:47 24.69767 -79.56348 35896 ft 489 kts 149°
2026-05-06 23:47 24.66899 -79.54336 36208 ft 489 kts 149°
2026-05-06 23:47 24.64035 -79.52328 36507 ft 488 kts 149°
2026-05-06 23:47 24.61175 -79.50320 36802 ft 488 kts 149°
2026-05-06 23:48 24.58352 -79.48335 37019 ft 488 kts 148°
2026-05-06 23:48 24.52669 -79.44341 37069 ft 483 kts 149°
2026-05-06 23:49 24.46997 -79.40373 37071 ft 483 kts 149°
2026-05-06 23:49 24.41322 -79.36411 37070 ft 483 kts 149°
2026-05-06 23:50 24.35656 -79.32454 37072 ft 483 kts 148°
2026-05-06 23:50 24.27198 -79.26523 37076 ft 483 kts 148°
2026-05-06 23:51 24.21579 -79.22484 37083 ft 483 kts 147°
2026-05-06 23:51 24.15977 -79.18423 37086 ft 483 kts 147°
2026-05-06 23:52 24.10367 -79.14379 37085 ft 483 kts 148°
2026-05-06 23:52 24.04784 -79.10387 37086 ft 483 kts 148°
2026-05-06 23:53 23.98856 -79.07035 37074 ft 479 kts 164°
2026-05-06 23:53 23.92391 -79.05471 37068 ft 476 kts 173°
2026-05-06 23:54 23.85873 -79.04188 37074 ft 476 kts 172°
2026-05-06 23:54 23.79406 -79.02903 37074 ft 476 kts 172°
2026-05-06 23:55 23.72895 -79.01613 37074 ft 475 kts 172°
2026-05-06 23:55 23.66384 -79.00331 37075 ft 476 kts 172°
2026-05-06 23:56 23.59873 -78.99043 37074 ft 475 kts 172°
2026-05-06 23:56 23.53368 -78.97756 37071 ft 475 kts 172°
2026-05-06 23:57 23.46905 -78.96478 37069 ft 475 kts 172°
2026-05-06 23:57 23.40400 -78.95203 37064 ft 475 kts 172°
2026-05-06 23:58 23.33894 -78.93929 37059 ft 475 kts 172°
2026-05-06 23:58 23.27390 -78.92646 37069 ft 475 kts 172°
2026-05-06 23:59 23.20991 -78.91046 37069 ft 477 kts 161°
2026-05-06 23:59 23.15188 -78.87556 37057 ft 480 kts 142°
2026-05-07 00:00 23.09901 -78.83136 37058 ft 480 kts 142°
2026-05-07 00:00 23.05491 -78.79482 37064 ft 479 kts 143°
2026-05-07 00:01 22.99285 -78.74358 37068 ft 479 kts 143°
2026-05-07 00:01 22.94010 -78.69997 37060 ft 480 kts 142°
2026-05-07 00:02 22.88704 -78.65607 37064 ft 480 kts 142°
2026-05-07 00:02 22.83392 -78.61211 37079 ft 480 kts 142°
2026-05-07 00:03 22.78087 -78.56827 37078 ft 479 kts 142°
2026-05-07 00:03 22.72832 -78.52472 37074 ft 479 kts 142°
2026-05-07 00:04 22.67550 -78.48068 37070 ft 479 kts 142°
2026-05-07 00:04 22.62281 -78.43680 37067 ft 479 kts 142°
2026-05-07 00:05 22.56995 -78.39289 37070 ft 479 kts 142°
2026-05-07 00:05 22.51748 -78.34926 37073 ft 479 kts 142°
2026-05-07 00:06 22.46465 -78.30531 37073 ft 479 kts 142°
2026-05-07 00:06 22.41184 -78.26134 37073 ft 479 kts 142°
2026-05-07 00:07 22.35941 -78.21766 37078 ft 479 kts 142°
2026-05-07 00:07 22.30677 -78.17379 37078 ft 479 kts 142°
2026-05-07 00:08 22.25417 -78.13004 37078 ft 479 kts 142°
2026-05-07 00:08 22.20137 -78.08625 37075 ft 479 kts 142°
2026-05-07 00:09 22.14858 -78.04249 37077 ft 479 kts 142°
2026-05-07 00:09 22.09583 -77.99870 37078 ft 478 kts 141°
2026-05-07 00:10 22.04346 -77.95529 37074 ft 478 kts 142°
2026-05-07 00:10 21.99067 -77.91173 37072 ft 478 kts 142°
2026-05-07 00:11 21.93782 -77.86820 37070 ft 478 kts 142°
2026-05-07 00:11 21.88510 -77.82469 37074 ft 477 kts 141°
2026-05-07 00:12 21.83266 -77.78157 37070 ft 477 kts 142°
2026-05-07 00:12 21.78058 -77.73900 37068 ft 477 kts 142°
2026-05-07 00:13 21.72771 -77.69594 37069 ft 477 kts 142°
2026-05-07 00:13 21.67485 -77.65285 37069 ft 477 kts 142°
2026-05-07 00:14 21.62242 -77.61007 37077 ft 476 kts 142°
2026-05-07 00:14 21.56966 -77.56710 37069 ft 475 kts 142°
2026-05-07 00:15 21.51700 -77.52423 37062 ft 475 kts 141°
2026-05-07 00:15 21.46435 -77.48138 37051 ft 475 kts 141°
2026-05-07 00:16 21.40949 -77.44291 37044 ft 476 kts 156°
2026-05-07 00:16 21.34599 -77.42452 37035 ft 474 kts 176°
2026-05-07 00:17 21.28011 -77.42498 37038 ft 473 kts 183°
2026-05-07 00:17 21.21421 -77.42693 37052 ft 474 kts 183°
2026-05-07 00:18 21.14833 -77.42878 37055 ft 474 kts 183°
2026-05-07 00:18 21.08312 -77.43074 37061 ft 474 kts 183°
2026-05-07 00:19 21.01724 -77.43280 37068 ft 474 kts 183°
2026-05-07 00:19 20.95126 -77.43480 37068 ft 474 kts 183°
2026-05-07 00:20 20.88540 -77.43677 37067 ft 474 kts 183°
2026-05-07 00:20 20.81993 -77.43877 37058 ft 474 kts 183°
2026-05-07 00:21 20.75403 -77.44082 37048 ft 474 kts 183°
2026-05-07 00:21 20.68797 -77.44278 37052 ft 475 kts 182°
2026-05-07 00:22 20.62193 -77.44474 37052 ft 475 kts 182°
2026-05-07 00:22 20.55625 -77.44673 37055 ft 475 kts 182°
2026-05-07 00:23 20.49044 -77.44863 37056 ft 475 kts 182°
2026-05-07 00:23 20.42434 -77.45026 37059 ft 475 kts 182°
2026-05-07 00:24 20.35823 -77.45184 37062 ft 475 kts 182°
2026-05-07 00:24 20.29216 -77.45352 37060 ft 475 kts 182°
2026-05-07 00:25 20.22609 -77.45525 37060 ft 475 kts 182°
2026-05-07 00:25 20.16053 -77.45691 37055 ft 475 kts 182°
2026-05-07 00:26 20.09450 -77.45857 37055 ft 475 kts 182°
2026-05-07 00:26 20.02845 -77.46029 37051 ft 475 kts 182°
2026-05-07 00:27 19.96246 -77.46201 37051 ft 474 kts 182°
2026-05-07 00:27 19.89682 -77.46362 37051 ft 475 kts 182°
2026-05-07 00:28 19.83073 -77.46524 36467 ft 480 kts 182°
2026-05-07 00:28 19.79698 -77.46608 35663 ft 484 kts 182°
2026-05-07 00:28 19.76353 -77.46694 35226 ft 479 kts 182°
2026-05-07 00:29 19.73024 -77.46779 34696 ft 477 kts 181°
2026-05-07 00:29 19.69711 -77.46863 34165 ft 476 kts 181°
2026-05-07 00:30 19.59906 -77.47120 32540 ft 467 kts 181°
2026-05-07 00:30 19.56667 -77.47198 32000 ft 464 kts 181°
2026-05-07 00:30 19.53455 -77.47275 31484 ft 460 kts 181°
2026-05-07 00:30 19.50271 -77.47240 30975 ft 456 kts 174°
2026-05-07 00:31 19.47160 -77.46673 30513 ft 451 kts 164°
2026-05-07 00:31 19.44199 -77.45648 30049 ft 446 kts 160°
2026-05-07 00:31 19.41280 -77.44574 29569 ft 441 kts 160°
2026-05-07 00:31 19.38437 -77.43529 29147 ft 435 kts 160°
2026-05-07 00:32 19.35591 -77.42486 28726 ft 431 kts 160°
2026-05-07 00:32 19.32775 -77.41459 28316 ft 426 kts 160°
2026-05-07 00:32 19.29981 -77.40444 27907 ft 423 kts 160°
2026-05-07 00:32 19.27212 -77.39437 27492 ft 420 kts 160°
2026-05-07 00:33 19.24458 -77.38436 27081 ft 417 kts 160°
2026-05-07 00:33 19.21718 -77.37440 26670 ft 415 kts 159°
2026-05-07 00:33 19.18993 -77.36446 26253 ft 414 kts 159°
2026-05-07 00:33 19.16286 -77.35460 25830 ft 412 kts 159°
2026-05-07 00:34 19.13610 -77.34483 25397 ft 411 kts 159°
2026-05-07 00:34 19.10917 -77.33500 24959 ft 409 kts 159°
2026-05-07 00:34 19.08226 -77.32520 24504 ft 408 kts 159°
2026-05-07 00:34 19.05539 -77.31545 24052 ft 408 kts 159°
2026-05-07 00:35 19.02859 -77.30571 23588 ft 407 kts 159°
2026-05-07 00:35 19.00185 -77.29599 23079 ft 405 kts 159°
2026-05-07 00:35 18.97530 -77.28633 22623 ft 402 kts 159°
2026-05-07 00:35 18.94936 -77.27573 22161 ft 397 kts 153°
2026-05-07 00:36 18.92446 -77.26343 21709 ft 394 kts 153°
2026-05-07 00:36 18.90008 -77.25141 21256 ft 390 kts 153°
2026-05-07 00:36 18.87558 -77.23931 20810 ft 387 kts 153°
2026-05-07 00:36 18.85125 -77.22727 20359 ft 385 kts 153°
2026-05-07 00:37 18.82707 -77.21539 19911 ft 382 kts 154°
2026-05-07 00:37 18.80305 -77.20363 19470 ft 380 kts 154°
2026-05-07 00:37 18.77918 -77.19194 19025 ft 377 kts 154°
2026-05-07 00:37 18.75542 -77.18031 18580 ft 375 kts 155°
2026-05-07 00:38 18.73182 -77.16874 18109 ft 373 kts 155°
2026-05-07 00:38 18.70842 -77.15724 17646 ft 369 kts 155°
2026-05-07 00:38 18.68559 -77.14598 17220 ft 365 kts 155°
2026-05-07 00:38 18.66270 -77.13471 16788 ft 361 kts 155°
2026-05-07 00:39 18.64004 -77.12360 16365 ft 357 kts 155°
2026-05-07 00:39 18.61761 -77.11262 15945 ft 354 kts 155°
2026-05-07 00:39 18.59540 -77.10174 15521 ft 350 kts 155°
2026-05-07 00:39 18.57337 -77.09093 15115 ft 347 kts 155°
2026-05-07 00:40 18.55156 -77.08025 14704 ft 345 kts 155°
2026-05-07 00:40 18.52992 -77.06964 14293 ft 342 kts 155°
2026-05-07 00:40 18.50870 -77.05923 13892 ft 340 kts 155°
2026-05-07 00:40 18.48737 -77.04877 13457 ft 337 kts 155°
2026-05-07 00:41 18.46623 -77.03844 13048 ft 333 kts 155°
2026-05-07 00:41 18.44528 -77.02821 12636 ft 329 kts 155°
2026-05-07 00:41 18.42495 -77.01828 12242 ft 314 kts 155°
2026-05-07 00:41 18.40557 -77.00883 11874 ft 300 kts 155°
2026-05-07 00:42 18.38684 -76.99971 11513 ft 296 kts 155°
2026-05-07 00:42 18.36819 -76.99063 11153 ft 295 kts 154°
2026-05-07 00:42 18.34959 -76.98157 10795 ft 294 kts 154°
2026-05-07 00:42 18.33105 -76.97257 10434 ft 293 kts 154°
2026-05-07 00:43 18.31282 -76.96371 10082 ft 292 kts 154°
2026-05-07 00:43 18.29443 -76.95476 9702 ft 291 kts 154°
2026-05-07 00:43 18.27609 -76.94582 9330 ft 289 kts 154°
2026-05-07 00:43 18.25791 -76.93696 8969 ft 287 kts 154°
2026-05-07 00:44 18.23983 -76.92814 8618 ft 285 kts 154°
2026-05-07 00:44 18.22158 -76.91996 8211 ft 287 kts 163°
2026-05-07 00:44 18.20169 -76.91835 7771 ft 291 kts 187°
2026-05-07 00:44 18.18260 -76.92535 7361 ft 294 kts 211°
2026-05-07 00:45 18.16776 -76.93960 6982 ft 295 kts 233°
2026-05-07 00:45 18.15591 -76.95714 6597 ft 295 kts 232°
2026-05-07 00:45 18.14301 -76.97380 6210 ft 294 kts 228°
2026-05-07 00:45 18.12902 -76.98935 5822 ft 293 kts 223°
2026-05-07 00:46 18.11422 -77.00365 5421 ft 285 kts 219°
2026-05-07 00:46 18.09880 -77.01655 4960 ft 283 kts 215°
2026-05-07 00:46 18.08263 -77.02824 4665 ft 277 kts 211°
2026-05-07 00:46 18.06676 -77.03821 4533 ft 254 kts 207°
2026-05-07 00:47 18.05109 -77.04331 4350 ft 231 kts 176°
2026-05-07 00:47 18.03679 -77.03788 3938 ft 215 kts 132°
2026-05-07 00:47 18.03084 -77.02473 3737 ft 195 kts 89°
2026-05-07 00:47 18.03156 -77.01094 3595 ft 186 kts 92°
2026-05-07 00:48 18.02668 -76.99850 3534 ft 190 kts 122°
2026-05-07 00:48 18.01985 -76.98675 3447 ft 187 kts 123°
2026-05-07 00:48 18.01204 -76.97581 3451 ft 187 kts 123°
2026-05-07 00:48 18.00501 -76.96432 3502 ft 187 kts 120°
2026-05-07 00:49 17.99870 -76.95287 3570 ft 176 kts 114°
2026-05-07 00:49 17.99393 -76.94123 3627 ft 177 kts 109°
2026-05-07 00:49 17.98965 -76.92918 3651 ft 176 kts 109°
2026-05-07 00:49 17.98480 -76.91746 3710 ft 169 kts 113°
2026-05-07 00:50 17.98002 -76.90594 3327 ft 177 kts 109°
2026-05-07 00:50 17.97604 -76.89382 3038 ft 172 kts 105°
2026-05-07 00:50 17.97203 -76.88225 2634 ft 168 kts 111°
2026-05-07 00:50 17.96738 -76.87112 2204 ft 160 kts 113°
2026-05-07 00:51 17.96334 -76.86040 1813 ft 156 kts 108°
2026-05-07 00:51 17.96002 -76.85046 1620 ft 134 kts 109°
2026-05-07 00:51 17.95674 -76.84162 1239 ft 130 kts 112°
2026-05-07 00:51 17.95285 -76.83295 778 ft 128 kts 114°
2026-05-07 00:52 17.94990 -76.82457 600 ft 121 kts 110°
2026-05-07 00:52 17.94693 -76.81629 505 ft 122 kts 115°
2026-05-07 00:52 17.94369 -76.80819 280 ft 119 kts 113°
2026-05-07 00:52 17.94061 -76.80015 69 ft 119 kts 113°
2026-05-07 00:53 17.93759 -76.79231 15 ft 107 kts 111°
2026-05-07 00:53 17.93536 -76.78676 13 ft 51 kts 116°
2026-05-07 00:53 17.93437 -76.78418 16 ft 36 kts 110°
2026-05-07 00:53 17.93406 -76.78213 16 ft 26 kts 88°
2026-05-07 00:54 17.93461 -76.78128 14 ft 15 kts 347°
2026-05-07 00:54 17.93543 -76.78154 14 ft 13 kts
2026-05-07 00:54 17.93619 -76.78124 15 ft 7 kts 20°
2026-05-07 00:54 17.93643 -76.78090 14 ft 5 kts 120°
2026-05-07 00:55 17.93626 -76.78051 14 ft 3 kts 115°